Vilnius, Baltarusija

12:39 PM +03 on sausio 24, 2019 (GMT +0300)
Vilnius International | | Change Station

Elev 512 ft 54.63 °N, 25.28 °E | Updated 19 minutes ago

Geras oras
Geras oras
16 °F
Feels Like 16 °F
N
2
Vėjas nepastovus Vėjas from nepastovus

Šiandien
High -- | Low -- °F
--% Chance of Precip.
Yesterday
High -- | Low -- °F
Precip. -- in
Slėgis 30.04 in
Matomumas -9999.0 mylios
Debesys
Rasos taškas 12 °F
Drėgmė 86%
Krituliai 0.00 in
Sniego dangos storis Not available.
9:18 AM 5:38 PM
Delčia, 86% visible
METAR EYVI 240920Z VRB02KT CAVOK M09/M11 Q1017 R01/3///95 NOSIG
Slėgis 30.04 in
Matomumas -9999.0 mylios
Debesys
Rasos taškas 12 °F
Drėgmė 86%
Krituliai 0.00 in
Sniego dangos storis Not available.
9:18 AM 5:38 PM
Delčia, 86% visible
METAR EYVI 240920Z VRB02KT CAVOK M09/M11 Q1017 R01/3///95 NOSIG

Get Severe Weather Alerts

Thanks for signing up!

Be on the lookout for a verification email in your inbox.

You'll start receiving the daily forecast at 6 AM.

×

10-Day Weather Forecast

×

Almanac

Astronomija

Jan. 24, 2019 Rise Set
Vietos laikas
Dienos šviesa
Jūrinė diena
Astronominė diena
Mėnulis
Matomos šviesos trukmė
Dienos ilgis
Tomorrow will be .
, % of the Moon is Illuminated

Šiandienos maksimumai

Country Highs Country Lows

Community

WunderPhotos

Category 6

Welcome to Category 6. This is the collective home for Weather Underground's featured writeups by Dr. Jeff Masters (right), Bob Henson (left), Chris Burt, and other regular contributors.

Nearby

Air Quality

  Air Quality AQ Index Pollutant
Not available.

Sniego danga

Station Depth Elevation

Earthquake Activity

Miestas Distance Mag. Time & Date
Minimum magnitude displayed is 2.5.

Coastal Water Temperatures

Vieta Temperatūra

Stations

Nearby Weather Stations

Station Location Temp Šaltas vėjas Rasos taškas Drėgmė Vėjas Precip. Elev Duomenys papildyti Type